Year,Month,Day,Hour,Minute,Value (Times are PST for temperature in C)
2013,09,02,00,00,16.90
2013,09,02,00,01,16.90
2013,09,02,00,02,16.90
2013,09,02,00,03,16.90
2013,09,02,00,04,16.90
2013,09,02,00,05,16.80
2013,09,02,00,06,16.80
2013,09,02,00,07,16.80
2013,09,02,00,08,16.80
2013,09,02,00,09,16.80
2013,09,02,00,10,16.80
2013,09,02,00,11,16.80
2013,09,02,00,12,16.80
2013,09,02,00,13,16.70
2013,09,02,00,14,16.70
2013,09,02,00,15,16.70
2013,09,02,00,16,16.70
2013,09,02,00,17,16.70
2013,09,02,00,18,16.70
2013,09,02,00,19,16.70
2013,09,02,00,20,16.70
2013,09,02,00,21,16.60
2013,09,02,00,22,16.60
2013,09,02,00,23,16.60
2013,09,02,00,24,16.60
2013,09,02,00,25,16.60
2013,09,02,00,26,16.60
2013,09,02,00,27,16.60
2013,09,02,00,28,16.50
2013,09,02,00,29,16.50
2013,09,02,00,30,16.50
2013,09,02,00,31,16.40
2013,09,02,00,32,16.40
2013,09,02,00,33,16.40
2013,09,02,00,34,16.40
2013,09,02,00,35,16.40
2013,09,02,00,36,16.30
2013,09,02,00,37,16.30
2013,09,02,00,38,16.30
2013,09,02,00,39,16.30
2013,09,02,00,40,16.30
2013,09,02,00,41,16.30
2013,09,02,00,42,16.30
2013,09,02,00,43,16.30
2013,09,02,00,44,16.30
2013,09,02,00,45,16.30
2013,09,02,00,46,16.30
2013,09,02,00,47,16.30
2013,09,02,00,48,16.30
2013,09,02,00,49,16.20
2013,09,02,00,50,16.30
2013,09,02,00,51,16.20
2013,09,02,00,52,16.20
2013,09,02,00,53,16.20
2013,09,02,00,54,16.20
2013,09,02,00,55,16.20
2013,09,02,00,56,16.20
2013,09,02,00,57,16.20
2013,09,02,00,58,16.20
2013,09,02,00,59,16.20
2013,09,02,01,00,16.10
2013,09,02,01,01,16.10
2013,09,02,01,02,16.10
2013,09,02,01,03,16.10
2013,09,02,01,04,16.10
2013,09,02,01,05,16.00
2013,09,02,01,06,16.00
2013,09,02,01,07,16.00
2013,09,02,01,08,16.00
2013,09,02,01,09,16.00
2013,09,02,01,10,15.90
2013,09,02,01,11,15.90
2013,09,02,01,12,15.90
2013,09,02,01,13,15.90
2013,09,02,01,14,15.90
2013,09,02,01,15,15.90
2013,09,02,01,16,15.90
2013,09,02,01,17,15.80
2013,09,02,01,18,15.80
2013,09,02,01,19,15.80
2013,09,02,01,20,15.80
2013,09,02,01,21,15.80
2013,09,02,01,22,15.80
2013,09,02,01,23,15.80
2013,09,02,01,24,15.80
2013,09,02,01,25,15.80
2013,09,02,01,26,15.80
2013,09,02,01,27,15.70
2013,09,02,01,28,15.70
2013,09,02,01,29,15.70
2013,09,02,01,30,15.70
2013,09,02,01,31,15.70
2013,09,02,01,32,15.70
2013,09,02,01,33,15.70
2013,09,02,01,34,15.70
2013,09,02,01,35,15.60
2013,09,02,01,36,15.60
2013,09,02,01,37,15.60
2013,09,02,01,38,15.60
2013,09,02,01,39,15.60
2013,09,02,01,40,15.60
2013,09,02,01,41,15.60
2013,09,02,01,42,15.60
2013,09,02,01,43,15.60
2013,09,02,01,44,15.60
2013,09,02,01,45,15.50
2013,09,02,01,46,15.50
2013,09,02,01,47,15.50
2013,09,02,01,48,15.50
2013,09,02,01,49,15.50
2013,09,02,01,50,15.40
2013,09,02,01,51,15.40
2013,09,02,01,52,15.40
2013,09,02,01,53,15.40
2013,09,02,01,54,15.40
2013,09,02,01,55,15.40
2013,09,02,01,56,15.40
2013,09,02,01,57,15.40
2013,09,02,01,58,15.40
2013,09,02,01,59,15.40
2013,09,02,02,00,15.40
2013,09,02,02,01,15.40
2013,09,02,02,02,15.40
2013,09,02,02,03,15.40
2013,09,02,02,04,15.40
2013,09,02,02,05,15.40
2013,09,02,02,06,15.40
2013,09,02,02,07,15.30
2013,09,02,02,08,15.30
2013,09,02,02,09,15.30
2013,09,02,02,10,15.30
2013,09,02,02,11,15.30
2013,09,02,02,12,15.20
2013,09,02,02,13,15.20
2013,09,02,02,14,15.20
2013,09,02,02,15,15.20
2013,09,02,02,16,15.20
2013,09,02,02,17,15.20
2013,09,02,02,18,15.20
2013,09,02,02,19,15.20
2013,09,02,02,20,15.20
2013,09,02,02,21,15.20
2013,09,02,02,22,15.20
2013,09,02,02,23,15.20
2013,09,02,02,24,15.20
2013,09,02,02,25,15.10
2013,09,02,02,26,15.10
2013,09,02,02,27,15.10
2013,09,02,02,28,15.10
2013,09,02,02,29,15.10
2013,09,02,02,30,15.10
2013,09,02,02,31,15.10
2013,09,02,02,32,15.10
2013,09,02,02,33,15.10
2013,09,02,02,34,15.10
2013,09,02,02,35,15.10
2013,09,02,02,36,15.00
2013,09,02,02,37,15.00
2013,09,02,02,38,15.00
2013,09,02,02,39,15.00
2013,09,02,02,40,15.00
2013,09,02,02,41,15.00
2013,09,02,02,42,15.00
2013,09,02,02,43,15.00
2013,09,02,02,44,15.00
2013,09,02,02,45,15.00
2013,09,02,02,46,15.00
2013,09,02,02,47,15.00
2013,09,02,02,48,15.00
2013,09,02,02,49,15.00
2013,09,02,02,50,15.00
2013,09,02,02,51,15.00
2013,09,02,02,52,15.00
2013,09,02,02,53,15.00
2013,09,02,02,54,15.00
2013,09,02,02,55,15.00
2013,09,02,02,56,15.20
2013,09,02,02,57,15.20
2013,09,02,02,58,15.30
2013,09,02,02,59,15.30
2013,09,02,03,00,15.30
2013,09,02,03,01,15.30
2013,09,02,03,02,15.30
2013,09,02,03,03,15.30
2013,09,02,03,04,15.30
2013,09,02,03,05,15.30
2013,09,02,03,06,15.30
2013,09,02,03,07,15.40
2013,09,02,03,08,15.50
2013,09,02,03,09,15.50
2013,09,02,03,10,15.60
2013,09,02,03,11,15.60
2013,09,02,03,12,15.60
2013,09,02,03,13,15.70
2013,09,02,03,14,15.70
2013,09,02,03,15,15.80
2013,09,02,03,16,15.80
2013,09,02,03,17,15.90
2013,09,02,03,18,16.00
2013,09,02,03,19,16.00
2013,09,02,03,20,16.10
2013,09,02,03,21,16.10
2013,09,02,03,22,16.10
2013,09,02,03,23,16.10
2013,09,02,03,24,16.20
2013,09,02,03,25,16.20
2013,09,02,03,26,16.20
2013,09,02,03,27,16.20
2013,09,02,03,28,16.20
2013,09,02,03,29,16.20
2013,09,02,03,30,16.30
2013,09,02,03,31,16.30
2013,09,02,03,32,16.30
2013,09,02,03,33,16.30
2013,09,02,03,34,16.30
2013,09,02,03,35,16.30
2013,09,02,03,36,16.30
2013,09,02,03,37,16.20
2013,09,02,03,38,16.20
2013,09,02,03,39,16.20
2013,09,02,03,40,16.10
2013,09,02,03,41,16.10
2013,09,02,03,42,16.10
2013,09,02,03,43,16.00
2013,09,02,03,44,16.00
2013,09,02,03,45,16.00
2013,09,02,03,46,16.00
2013,09,02,03,47,15.90
2013,09,02,03,48,15.90
2013,09,02,03,49,15.90
2013,09,02,03,50,15.80
2013,09,02,03,51,15.80
2013,09,02,03,52,15.80
2013,09,02,03,53,15.80
2013,09,02,03,54,15.70
2013,09,02,03,55,15.70
2013,09,02,03,56,15.70
2013,09,02,03,57,15.60
2013,09,02,03,58,15.60
2013,09,02,03,59,15.60
2013,09,02,04,00,15.50
2013,09,02,04,01,15.50
2013,09,02,04,02,15.40
2013,09,02,04,03,15.40
2013,09,02,04,04,15.40
2013,09,02,04,05,15.30
2013,09,02,04,06,15.30
2013,09,02,04,07,15.30
2013,09,02,04,08,15.30
2013,09,02,04,09,15.30
2013,09,02,04,10,15.30
2013,09,02,04,11,15.20
2013,09,02,04,12,15.20
2013,09,02,04,13,15.20
2013,09,02,04,14,15.20
2013,09,02,04,15,15.20
2013,09,02,04,16,15.20
2013,09,02,04,17,15.20
2013,09,02,04,18,15.20
2013,09,02,04,19,15.10
2013,09,02,04,20,15.10
2013,09,02,04,21,15.10
2013,09,02,04,22,15.10
2013,09,02,04,23,15.10
2013,09,02,04,24,15.00
2013,09,02,04,25,15.00
2013,09,02,04,26,15.00
2013,09,02,04,27,15.00
2013,09,02,04,28,15.00
2013,09,02,04,29,15.00
2013,09,02,04,30,15.00
2013,09,02,04,31,15.00
2013,09,02,04,32,15.00
2013,09,02,04,33,15.00
2013,09,02,04,34,15.00
2013,09,02,04,35,15.00
2013,09,02,04,36,15.00
2013,09,02,04,37,15.00
2013,09,02,04,38,15.00
2013,09,02,04,39,15.00
2013,09,02,04,40,15.00
2013,09,02,04,41,15.00
2013,09,02,04,42,15.00
2013,09,02,04,43,15.00
2013,09,02,04,44,15.00
2013,09,02,04,45,15.00
2013,09,02,04,46,15.00
2013,09,02,04,47,15.00
2013,09,02,04,48,15.00
2013,09,02,04,49,15.00
2013,09,02,04,50,14.90
2013,09,02,04,51,14.90
2013,09,02,04,52,14.80
2013,09,02,04,53,14.80
2013,09,02,04,54,14.80
2013,09,02,04,55,14.80
2013,09,02,04,56,14.80
2013,09,02,04,57,14.70
2013,09,02,04,58,14.70
2013,09,02,04,59,14.70
2013,09,02,05,00,14.70
2013,09,02,05,01,14.70
2013,09,02,05,02,14.70
2013,09,02,05,03,14.70
2013,09,02,05,04,14.70
2013,09,02,05,05,14.70
2013,09,02,05,06,14.60
2013,09,02,05,07,14.60
2013,09,02,05,08,14.60
2013,09,02,05,09,14.50
2013,09,02,05,10,14.50
2013,09,02,05,11,14.50
2013,09,02,05,12,14.50
2013,09,02,05,13,14.50
2013,09,02,05,14,14.50
2013,09,02,05,15,14.40
2013,09,02,05,16,14.40
2013,09,02,05,17,14.40
2013,09,02,05,18,14.40
2013,09,02,05,19,14.40
2013,09,02,05,20,14.40
2013,09,02,05,21,14.40
2013,09,02,05,22,14.40
2013,09,02,05,23,14.40
2013,09,02,05,24,14.40
2013,09,02,05,25,14.40
2013,09,02,05,26,14.40
2013,09,02,05,27,14.40
2013,09,02,05,28,14.40
2013,09,02,05,29,14.40
2013,09,02,05,30,14.40
2013,09,02,05,31,14.40
2013,09,02,05,32,14.40
2013,09,02,05,33,14.40
2013,09,02,05,34,14.40
2013,09,02,05,35,14.40
2013,09,02,05,36,14.40
2013,09,02,05,37,14.50
2013,09,02,05,38,14.50
2013,09,02,05,39,14.50
2013,09,02,05,40,14.60
2013,09,02,05,41,14.60
2013,09,02,05,42,14.60
2013,09,02,05,43,14.60
2013,09,02,05,44,14.50
2013,09,02,05,45,14.50
2013,09,02,05,46,14.50
2013,09,02,05,47,14.50
2013,09,02,05,48,14.50
2013,09,02,05,49,14.50
2013,09,02,05,50,14.40
2013,09,02,05,51,14.40
2013,09,02,05,52,14.40
2013,09,02,05,53,14.40
2013,09,02,05,54,14.40
2013,09,02,05,55,14.40
2013,09,02,05,56,14.40
2013,09,02,05,57,14.40
2013,09,02,05,58,14.40
2013,09,02,05,59,14.40
2013,09,02,06,00,14.40
2013,09,02,06,01,14.40
2013,09,02,06,02,14.40
2013,09,02,06,03,14.40
2013,09,02,06,04,14.40
2013,09,02,06,05,14.40
2013,09,02,06,06,14.30
2013,09,02,06,07,14.30
2013,09,02,06,08,14.30
2013,09,02,06,09,14.30
2013,09,02,06,10,14.30
2013,09,02,06,11,14.30
2013,09,02,06,12,14.30
2013,09,02,06,13,14.20
2013,09,02,06,14,14.20
2013,09,02,06,15,14.20
2013,09,02,06,16,14.20
2013,09,02,06,17,14.20
2013,09,02,06,18,14.20
2013,09,02,06,19,14.20
2013,09,02,06,20,14.20
2013,09,02,06,21,14.20
2013,09,02,06,22,14.20
2013,09,02,06,23,14.20
2013,09,02,06,24,14.20
2013,09,02,06,25,14.10
2013,09,02,06,26,14.10
2013,09,02,06,27,14.10
2013,09,02,06,28,14.10
2013,09,02,06,29,14.10
2013,09,02,06,30,14.10
2013,09,02,06,31,14.10
2013,09,02,06,32,14.10
2013,09,02,06,33,14.10
2013,09,02,06,34,14.10
2013,09,02,06,35,14.10
2013,09,02,06,36,14.10
2013,09,02,06,37,14.10
2013,09,02,06,38,14.10
2013,09,02,06,39,14.00
2013,09,02,06,40,14.00
2013,09,02,06,41,14.00
2013,09,02,06,42,14.00
2013,09,02,06,43,14.00
2013,09,02,06,44,13.90
2013,09,02,06,45,13.90
2013,09,02,06,46,13.90
2013,09,02,06,47,14.00
2013,09,02,06,48,14.00
2013,09,02,06,49,14.00
2013,09,02,06,50,14.00
2013,09,02,06,51,14.10
2013,09,02,06,52,14.10
2013,09,02,06,53,14.10
2013,09,02,06,54,14.10
2013,09,02,06,55,14.10
2013,09,02,06,56,14.10
2013,09,02,06,57,14.10
2013,09,02,06,58,14.10
2013,09,02,06,59,14.10
2013,09,02,07,00,14.10
2013,09,02,07,01,14.20
2013,09,02,07,02,14.20
2013,09,02,07,03,14.20
2013,09,02,07,04,14.20
2013,09,02,07,05,14.20
2013,09,02,07,06,14.10
2013,09,02,07,07,14.10
2013,09,02,07,08,14.10
2013,09,02,07,09,14.10
2013,09,02,07,10,14.10
2013,09,02,07,11,14.10
2013,09,02,07,12,14.10
2013,09,02,07,13,14.20
2013,09,02,07,14,14.20
2013,09,02,07,15,14.20
2013,09,02,07,16,14.20
2013,09,02,07,17,14.20
2013,09,02,07,18,14.30
2013,09,02,07,19,14.30
2013,09,02,07,20,14.30
2013,09,02,07,21,14.40
2013,09,02,07,22,14.40
2013,09,02,07,23,14.50
2013,09,02,07,24,14.50
2013,09,02,07,25,14.50
2013,09,02,07,26,14.50
2013,09,02,07,27,14.50
2013,09,02,07,28,14.50
2013,09,02,07,29,14.50
2013,09,02,07,30,14.50
2013,09,02,07,31,14.50
2013,09,02,07,32,14.60
2013,09,02,07,33,14.60
2013,09,02,07,34,14.60
2013,09,02,07,35,14.60
2013,09,02,07,36,14.60
2013,09,02,07,37,14.60
2013,09,02,07,38,14.60
2013,09,02,07,39,14.60
2013,09,02,07,40,14.60
2013,09,02,07,41,14.60
2013,09,02,07,42,14.60
2013,09,02,07,43,14.60
2013,09,02,07,44,14.70
2013,09,02,07,45,14.70
2013,09,02,07,46,14.70
2013,09,02,07,47,14.70
2013,09,02,07,48,14.70
2013,09,02,07,49,14.70
2013,09,02,07,50,14.80
2013,09,02,07,51,14.80
2013,09,02,07,52,14.80
2013,09,02,07,53,14.80
2013,09,02,07,54,14.80
2013,09,02,07,55,14.90
2013,09,02,07,56,14.90
2013,09,02,07,57,14.90
2013,09,02,07,58,15.00
2013,09,02,07,59,15.00
2013,09,02,08,00,15.00
2013,09,02,08,01,15.00
2013,09,02,08,02,15.00
2013,09,02,08,03,15.00
2013,09,02,08,04,15.00
2013,09,02,08,05,15.00
2013,09,02,08,06,15.10
2013,09,02,08,07,15.20
2013,09,02,08,08,15.20
2013,09,02,08,09,15.30
2013,09,02,08,10,15.30
2013,09,02,08,11,15.40
2013,09,02,08,12,15.50
2013,09,02,08,13,15.60
2013,09,02,08,14,15.70
2013,09,02,08,15,15.80
2013,09,02,08,16,16.00
2013,09,02,08,17,16.10
2013,09,02,08,18,16.30
2013,09,02,08,19,16.40
2013,09,02,08,20,16.60
2013,09,02,08,21,16.70
2013,09,02,08,22,16.90
2013,09,02,08,23,16.90
2013,09,02,08,24,17.00
2013,09,02,08,25,17.10
2013,09,02,08,26,17.20
2013,09,02,08,27,17.20
2013,09,02,08,28,17.20
2013,09,02,08,29,17.20
2013,09,02,08,30,17.20
2013,09,02,08,31,17.20
2013,09,02,08,32,17.20
2013,09,02,08,33,17.20
2013,09,02,08,34,17.20
2013,09,02,08,35,17.20
2013,09,02,08,36,17.20
2013,09,02,08,37,17.20
2013,09,02,08,38,17.20
2013,09,02,08,39,17.20
2013,09,02,08,40,17.30
2013,09,02,08,41,17.30
2013,09,02,08,42,17.30
2013,09,02,08,43,17.30
2013,09,02,08,44,17.40
2013,09,02,08,45,17.40
2013,09,02,08,46,17.40
2013,09,02,08,47,17.40
2013,09,02,08,48,17.40
2013,09,02,08,49,17.50
2013,09,02,08,50,17.50
2013,09,02,08,51,17.60
2013,09,02,08,52,17.60
2013,09,02,08,53,17.70
2013,09,02,08,54,17.80
2013,09,02,08,55,17.80
2013,09,02,08,56,17.80
2013,09,02,08,57,17.80
2013,09,02,08,58,17.80
2013,09,02,08,59,17.90
2013,09,02,09,00,17.90
2013,09,02,09,01,17.90
2013,09,02,09,02,18.00
2013,09,02,09,03,18.00
2013,09,02,09,04,18.10
2013,09,02,09,05,18.10
2013,09,02,09,06,18.20
2013,09,02,09,07,18.30
2013,09,02,09,08,18.40
2013,09,02,09,09,18.50
2013,09,02,09,10,18.50
2013,09,02,09,11,18.60
2013,09,02,09,12,18.70
2013,09,02,09,13,18.70
2013,09,02,09,14,18.80
2013,09,02,09,15,18.90
2013,09,02,09,16,18.90
2013,09,02,09,17,19.00
2013,09,02,09,18,19.00
2013,09,02,09,19,19.00
2013,09,02,09,20,19.00
2013,09,02,09,21,18.90
2013,09,02,09,22,18.90
2013,09,02,09,23,18.90
2013,09,02,09,24,18.80
2013,09,02,09,25,18.80
2013,09,02,09,26,18.80
2013,09,02,09,27,18.80
2013,09,02,09,28,18.80
2013,09,02,09,29,18.70
2013,09,02,09,30,18.70
2013,09,02,09,31,18.70
2013,09,02,09,32,18.80
2013,09,02,09,33,18.80
2013,09,02,09,34,18.80
2013,09,02,09,35,18.80
2013,09,02,09,36,18.90
2013,09,02,09,37,18.90
2013,09,02,09,38,18.90
2013,09,02,09,39,18.90
2013,09,02,09,40,18.90
2013,09,02,09,41,18.90
2013,09,02,09,42,18.90
2013,09,02,09,43,18.90
2013,09,02,09,44,18.90
2013,09,02,09,45,19.00
2013,09,02,09,46,19.00
2013,09,02,09,47,19.00
2013,09,02,09,48,19.00
2013,09,02,09,49,19.00
2013,09,02,09,50,19.10
2013,09,02,09,51,19.00
2013,09,02,09,52,19.00
2013,09,02,09,53,19.00
2013,09,02,09,54,19.00
2013,09,02,09,55,19.00
2013,09,02,09,56,19.00
2013,09,02,09,57,19.10
2013,09,02,09,58,19.10
2013,09,02,09,59,19.10
2013,09,02,10,00,19.20
2013,09,02,10,01,19.20
2013,09,02,10,02,19.20
2013,09,02,10,03,19.30
2013,09,02,10,04,19.30
2013,09,02,10,05,19.30
2013,09,02,10,06,19.30
2013,09,02,10,07,19.30
2013,09,02,10,08,19.30
2013,09,02,10,09,19.30
2013,09,02,10,10,19.30
2013,09,02,10,11,19.30
2013,09,02,10,12,19.30
2013,09,02,10,13,19.30
2013,09,02,10,14,19.30
2013,09,02,10,15,19.30
2013,09,02,10,16,19.30
2013,09,02,10,17,19.30
2013,09,02,10,18,19.30
2013,09,02,10,19,19.30
2013,09,02,10,20,19.30
2013,09,02,10,21,19.20
2013,09,02,10,22,19.20
2013,09,02,10,23,19.20
2013,09,02,10,24,19.20
2013,09,02,10,25,19.20
2013,09,02,10,26,19.10
2013,09,02,10,27,19.10
2013,09,02,10,28,19.10
2013,09,02,10,29,19.10
2013,09,02,10,30,19.10
2013,09,02,10,31,19.10
2013,09,02,10,32,19.20
2013,09,02,10,33,19.20
2013,09,02,10,34,19.20
2013,09,02,10,35,19.30
2013,09,02,10,36,19.30
2013,09,02,10,37,19.40
2013,09,02,10,38,19.40
2013,09,02,10,39,19.40
2013,09,02,10,40,19.40
2013,09,02,10,41,19.50
2013,09,02,10,42,19.50
2013,09,02,10,43,19.60
2013,09,02,10,44,19.60
2013,09,02,10,45,19.60
2013,09,02,10,46,19.50
2013,09,02,10,47,19.50
2013,09,02,10,48,19.50
2013,09,02,10,49,19.50
2013,09,02,10,50,19.50
2013,09,02,10,51,19.40
2013,09,02,10,52,19.30
2013,09,02,10,53,19.30
2013,09,02,10,54,19.20
2013,09,02,10,55,19.10
2013,09,02,10,56,19.00
2013,09,02,10,57,19.00
2013,09,02,10,58,19.00
2013,09,02,10,59,19.00
2013,09,02,11,00,18.90
2013,09,02,11,01,18.90
2013,09,02,11,02,18.90
2013,09,02,11,03,18.90
2013,09,02,11,04,18.90
2013,09,02,11,05,18.90
2013,09,02,11,06,18.90
2013,09,02,11,07,18.90
2013,09,02,11,08,19.00
2013,09,02,11,09,19.00
2013,09,02,11,10,19.10
2013,09,02,11,11,19.10
2013,09,02,11,12,19.20
2013,09,02,11,13,19.30
2013,09,02,11,14,19.40
2013,09,02,11,15,19.50
2013,09,02,11,16,19.50
2013,09,02,11,17,19.60
2013,09,02,11,18,19.60
2013,09,02,11,19,19.60
2013,09,02,11,20,19.60
2013,09,02,11,21,19.50
2013,09,02,11,22,19.40
2013,09,02,11,23,19.30
2013,09,02,11,24,19.30
2013,09,02,11,25,19.20
2013,09,02,11,26,19.20
2013,09,02,11,27,19.10
2013,09,02,11,28,19.10
2013,09,02,11,29,19.00
2013,09,02,11,30,18.90
2013,09,02,11,31,18.90
2013,09,02,11,32,18.80
2013,09,02,11,33,18.80
2013,09,02,11,34,18.90
2013,09,02,11,35,19.00
2013,09,02,11,36,19.10
2013,09,02,11,37,19.10
2013,09,02,11,38,19.20
2013,09,02,11,39,19.30
2013,09,02,11,40,19.40
2013,09,02,11,41,19.50
2013,09,02,11,42,19.50
2013,09,02,11,43,19.60
2013,09,02,11,44,19.60
2013,09,02,11,45,19.60
2013,09,02,11,46,19.60
2013,09,02,11,47,19.60
2013,09,02,11,48,19.70
2013,09,02,11,49,19.70
2013,09,02,11,50,19.70
2013,09,02,11,51,19.70
2013,09,02,11,52,19.60
2013,09,02,11,53,19.60
2013,09,02,11,54,19.60
2013,09,02,11,55,19.60
2013,09,02,11,56,19.60
2013,09,02,11,57,19.60
2013,09,02,11,58,19.60
2013,09,02,11,59,19.60
2013,09,02,12,00,19.60
2013,09,02,12,01,19.60
2013,09,02,12,02,19.70
2013,09,02,12,03,19.60
2013,09,02,12,04,19.50
2013,09,02,12,05,19.50
2013,09,02,12,06,19.40
2013,09,02,12,07,19.40
2013,09,02,12,08,19.40
2013,09,02,12,09,19.40
2013,09,02,12,10,19.40
2013,09,02,12,11,19.30
2013,09,02,12,12,19.30
2013,09,02,12,13,19.30
2013,09,02,12,14,19.30
2013,09,02,12,15,19.30
2013,09,02,12,16,19.20
2013,09,02,12,17,19.20
2013,09,02,12,18,19.10
2013,09,02,12,19,19.10
2013,09,02,12,20,19.10
2013,09,02,12,21,19.10
2013,09,02,12,22,19.10
2013,09,02,12,23,19.10
2013,09,02,12,24,19.10
2013,09,02,12,25,19.10
2013,09,02,12,26,19.10
2013,09,02,12,27,19.10
2013,09,02,12,28,19.10
2013,09,02,12,29,19.10
2013,09,02,12,30,19.10
2013,09,02,12,31,19.20
2013,09,02,12,32,19.20
2013,09,02,12,33,19.20
2013,09,02,12,34,19.20
2013,09,02,12,35,19.20
2013,09,02,12,36,19.20
2013,09,02,12,37,19.20
2013,09,02,12,38,19.20
2013,09,02,12,39,19.30
2013,09,02,12,40,19.30
2013,09,02,12,41,19.30
2013,09,02,12,42,19.30
2013,09,02,12,43,19.30
2013,09,02,12,44,19.30
2013,09,02,12,45,19.30
2013,09,02,12,46,19.30
2013,09,02,12,47,19.40
2013,09,02,12,48,19.40
2013,09,02,12,49,19.40
2013,09,02,12,50,19.40
2013,09,02,12,51,19.40
2013,09,02,12,52,19.40
2013,09,02,12,53,19.40
2013,09,02,12,54,19.40
2013,09,02,12,55,19.40
2013,09,02,12,56,19.40
2013,09,02,12,57,19.40
2013,09,02,12,58,19.40
2013,09,02,12,59,19.30
2013,09,02,13,00,19.30
2013,09,02,13,01,19.20
2013,09,02,13,02,19.20
2013,09,02,13,03,19.20
2013,09,02,13,04,19.20
2013,09,02,13,05,19.20
2013,09,02,13,06,19.20
2013,09,02,13,07,19.20
2013,09,02,13,08,19.20
2013,09,02,13,09,19.20
2013,09,02,13,10,19.20
2013,09,02,13,11,19.20
2013,09,02,13,12,19.10
2013,09,02,13,13,19.10
2013,09,02,13,14,19.10
2013,09,02,13,15,19.10
2013,09,02,13,16,19.00
2013,09,02,13,17,19.00
2013,09,02,13,18,18.90
2013,09,02,13,19,18.90
2013,09,02,13,20,18.90
2013,09,02,13,21,18.90
2013,09,02,13,22,18.90
2013,09,02,13,23,18.90
2013,09,02,13,24,18.90
2013,09,02,13,25,18.90
2013,09,02,13,26,18.90
2013,09,02,13,27,18.90
2013,09,02,13,28,18.90
2013,09,02,13,29,18.90
2013,09,02,13,30,19.00
2013,09,02,13,31,19.10
2013,09,02,13,32,19.10
2013,09,02,13,33,19.20
2013,09,02,13,34,19.30
2013,09,02,13,35,19.40
2013,09,02,13,36,19.40
2013,09,02,13,37,19.50
2013,09,02,13,38,19.50
2013,09,02,13,39,19.60
2013,09,02,13,40,19.70
2013,09,02,13,41,19.70
2013,09,02,13,42,19.80
2013,09,02,13,43,19.80
2013,09,02,13,44,19.90
2013,09,02,13,45,19.90
2013,09,02,13,46,20.00
2013,09,02,13,47,20.00
2013,09,02,13,48,20.00
2013,09,02,13,49,20.00
2013,09,02,13,50,20.10
2013,09,02,13,51,20.10
2013,09,02,13,52,20.20
2013,09,02,13,53,20.20
2013,09,02,13,54,20.30
2013,09,02,13,55,20.30
2013,09,02,13,56,20.30
2013,09,02,13,57,20.40
2013,09,02,13,58,20.40
2013,09,02,13,59,20.40
2013,09,02,14,00,20.50
2013,09,02,14,01,20.60
2013,09,02,14,02,20.60
2013,09,02,14,03,20.70
2013,09,02,14,04,20.70
2013,09,02,14,05,20.70
2013,09,02,14,06,20.70
2013,09,02,14,07,20.70
2013,09,02,14,08,20.70
2013,09,02,14,09,20.70
2013,09,02,14,10,20.80
2013,09,02,14,11,20.80
2013,09,02,14,12,20.80
2013,09,02,14,13,20.80
2013,09,02,14,14,20.80
2013,09,02,14,15,20.80
2013,09,02,14,16,20.90
2013,09,02,14,17,20.90
2013,09,02,14,18,20.90
2013,09,02,14,19,20.90
2013,09,02,14,20,21.00
2013,09,02,14,21,21.10
2013,09,02,14,22,21.10
2013,09,02,14,23,21.20
2013,09,02,14,24,21.30
2013,09,02,14,25,21.30
2013,09,02,14,26,21.40
2013,09,02,14,27,21.40
2013,09,02,14,28,21.40
2013,09,02,14,29,21.40
2013,09,02,14,30,21.40
2013,09,02,14,31,21.40
2013,09,02,14,32,21.50
2013,09,02,14,33,21.50
2013,09,02,14,34,21.60
2013,09,02,14,35,21.60
2013,09,02,14,36,21.60
2013,09,02,14,37,21.60
2013,09,02,14,38,21.60
2013,09,02,14,39,21.50
2013,09,02,14,40,21.50
2013,09,02,14,41,21.50
2013,09,02,14,42,21.50
2013,09,02,14,43,21.50
2013,09,02,14,44,21.60
2013,09,02,14,45,21.60
2013,09,02,14,46,21.60
2013,09,02,14,47,21.60
2013,09,02,14,48,21.70
2013,09,02,14,49,21.70
2013,09,02,14,50,21.80
2013,09,02,14,51,21.80
2013,09,02,14,52,21.90
2013,09,02,14,53,22.00
2013,09,02,14,54,22.10
2013,09,02,14,55,22.10
2013,09,02,14,56,22.10
2013,09,02,14,57,22.20
2013,09,02,14,58,22.20
2013,09,02,14,59,22.20
2013,09,02,15,00,22.30
2013,09,02,15,01,22.30
2013,09,02,15,02,22.30
2013,09,02,15,03,22.30
2013,09,02,15,04,22.30
2013,09,02,15,05,22.30
2013,09,02,15,06,22.30
2013,09,02,15,07,22.20
2013,09,02,15,08,22.20
2013,09,02,15,09,22.10
2013,09,02,15,10,22.00
2013,09,02,15,11,21.90
2013,09,02,15,12,21.90
2013,09,02,15,13,21.80
2013,09,02,15,14,21.80
2013,09,02,15,15,21.80
2013,09,02,15,16,21.90
2013,09,02,15,17,21.90
2013,09,02,15,18,22.00
2013,09,02,15,19,22.00
2013,09,02,15,20,22.10
2013,09,02,15,21,22.10
2013,09,02,15,22,22.10
2013,09,02,15,23,22.10
2013,09,02,15,24,22.10
2013,09,02,15,25,22.10
2013,09,02,15,26,22.10
2013,09,02,15,27,22.10
2013,09,02,15,28,22.10
2013,09,02,15,29,22.10
2013,09,02,15,30,22.10
2013,09,02,15,31,22.10
2013,09,02,15,32,22.10
2013,09,02,15,33,22.00
2013,09,02,15,34,22.00
2013,09,02,15,35,21.90
2013,09,02,15,36,21.80
2013,09,02,15,37,21.80
2013,09,02,15,38,21.70
2013,09,02,15,39,21.70
2013,09,02,15,40,21.70
2013,09,02,15,41,21.70
2013,09,02,15,42,21.60
2013,09,02,15,43,21.60
2013,09,02,15,44,21.60
2013,09,02,15,45,21.60
2013,09,02,15,46,21.60
2013,09,02,15,47,21.60
2013,09,02,15,48,21.50
2013,09,02,15,49,21.50
2013,09,02,15,50,21.40
2013,09,02,15,51,21.30
2013,09,02,15,52,21.30
2013,09,02,15,53,21.20
2013,09,02,15,54,21.20
2013,09,02,15,55,21.20
2013,09,02,15,56,21.20
2013,09,02,15,57,21.30
2013,09,02,15,58,21.40
2013,09,02,15,59,21.50
2013,09,02,16,00,21.60
2013,09,02,16,01,21.60
2013,09,02,16,02,21.70
2013,09,02,16,03,21.80
2013,09,02,16,04,21.90
2013,09,02,16,05,21.90
2013,09,02,16,06,22.00
2013,09,02,16,07,22.20
2013,09,02,16,08,22.30
2013,09,02,16,09,22.30
2013,09,02,16,10,22.40
2013,09,02,16,11,22.40
2013,09,02,16,12,22.40
2013,09,02,16,13,22.40
2013,09,02,16,14,22.40
2013,09,02,16,15,22.50
2013,09,02,16,16,22.50
2013,09,02,16,17,22.60
2013,09,02,16,18,22.60
2013,09,02,16,19,22.60
2013,09,02,16,20,22.60
2013,09,02,16,21,22.60
2013,09,02,16,22,22.70
2013,09,02,16,23,22.70
2013,09,02,16,24,22.70
2013,09,02,16,25,22.70
2013,09,02,16,26,22.70
2013,09,02,16,27,22.70
2013,09,02,16,28,22.70
2013,09,02,16,29,22.70
2013,09,02,16,30,22.70
2013,09,02,16,31,22.70
2013,09,02,16,32,22.70
2013,09,02,16,33,22.70
2013,09,02,16,34,22.70
2013,09,02,16,35,22.70
2013,09,02,16,36,22.70
2013,09,02,16,37,22.80
2013,09,02,16,38,22.80
2013,09,02,16,39,22.80
2013,09,02,16,40,22.80
2013,09,02,16,41,22.90
2013,09,02,16,42,23.10
2013,09,02,16,43,23.20
2013,09,02,16,44,23.30
2013,09,02,16,45,23.40
2013,09,02,16,46,23.40
2013,09,02,16,47,23.40
2013,09,02,16,48,23.50
2013,09,02,16,49,23.60
2013,09,02,16,50,23.70
2013,09,02,16,51,23.80
2013,09,02,16,52,23.90
2013,09,02,16,53,23.90
2013,09,02,16,54,23.70
2013,09,02,16,55,23.40
2013,09,02,16,56,23.10
2013,09,02,16,57,22.90
2013,09,02,16,58,22.80
2013,09,02,16,59,22.70
2013,09,02,17,00,22.60
2013,09,02,17,01,22.60
2013,09,02,17,02,22.60
2013,09,02,17,03,22.50
2013,09,02,17,04,22.30
2013,09,02,17,05,22.30
2013,09,02,17,06,22.20
2013,09,02,17,07,22.10
2013,09,02,17,08,22.00
2013,09,02,17,09,21.90
2013,09,02,17,10,21.80
2013,09,02,17,11,21.80
2013,09,02,17,12,21.80
2013,09,02,17,13,21.70
2013,09,02,17,14,21.60
2013,09,02,17,15,21.60
2013,09,02,17,16,21.50
2013,09,02,17,17,21.40
2013,09,02,17,18,21.40
2013,09,02,17,19,21.40